INTELSAT NEW DAWN (37392 NORAD) Tracking and Keplerian Element Data

This shows tracking and keplerian element data for the satellite.

Feedback or suggestion? Click here.




ElementValue
Catalog37392
NameINTELSAT NEW DAWN
Epoch Orbit2431
Epoch Day198.92063836
Epoch Year2018
RAAN176.3543
Inclination0.0296
Eccentricity0.0001284
Argument of Perigee199.3751
Mean Anonmoly284.1592
Mean Motion1.00272779
Decay Rate1.36E-06
L11 37392U 11016A 18198.92063836 .00000136 00000-0 00000-0 0 9997
L22 37392 0.0296 176.3543 0001284 199.3751 284.1592 1.00272779 24318

Live tracking and technical data element details for INTELSAT NEW DAWN (NORAD 37392). INTELSAT NEW DAWN can be tracked NOW for your location showing map with azimuth and elevation plus other details from your city location.

Track the satellite on the map from your city or location and see movement details for azimuth, elevation, latitude, longitude, range, height, and movement on the map or in text.







IsCatalogInMostPopularTable: catalog: 37392, numindb: 40
Update: records affected: 1



GetName: 37392 INTELSAT NEW DAWN

Hit Count: updated at: Sat, 21 Jul 2018 07:46:00 GMT